When you browse on this site, cookies collect data to enhance your experience and personalize the content and advertising you see.
Visit our Privacy Policy to learn more. By continuing to use the site, you agree to this use of cookies and data.
  • In Latvia
  • List of Countries
  • For 7 days
  • Water Temperature
  • Weather Map
  • Weather Widgets
  • user-avatar
    Login

    Hourly Weather Mendoza

    Today, 16 December, Monday

    Time Temperature Precipitation Wind Pressure Humidity
    00:00 +21°C° 0 mm 2 mps 698 mmHg 27%
    01:00 +20°C° 0 mm 2 mps 698 mmHg 28%
    02:00 +20°C° 0 mm 2 mps 697 mmHg 29%
    03:00 +20°C° 0 mm 2 mps 697 mmHg 31%
    04:00 +19°C° 0 mm 2 mps 697 mmHg 33%
    05:00 +20°C° 0 mm 2 mps 698 mmHg 29%
    06:00 +21°C° 0 mm 2 mps 698 mmHg 26%
    07:00 +24°C° 0 mm 2 mps 699 mmHg 22%
    08:00 +25°C° 0 mm 2 mps 698 mmHg 21%
    09:00 +26°C° 0 mm 2 mps 698 mmHg 20%
    10:00 +27°C° 0 mm 2 mps 698 mmHg 19%
    11:00 +28°C° 0 mm 3 mps 698 mmHg 18%
    12:00 +29°C° 0 mm 3 mps 697 mmHg 17%
    13:00 +30°C° 0 mm 3 mps 697 mmHg 17%
    14:00 +32°C° 0 mm 4 mps 696 mmHg 16%
    15:00 +32°C° 0 mm 4 mps 696 mmHg 15%
    16:00 +32°C° 0 mm 4 mps 695 mmHg 15%
    17:00 +30°C° 0 mm 4 mps 696 mmHg 16%
    18:00 +29°C° 0 mm 4 mps 696 mmHg 18%
    19:00 +28°C° 0 mm 5 mps 697 mmHg 19%
    20:00 +27°C° 0 mm 5 mps 697 mmHg 26%
    21:00 +26°C° 0 mm 5 mps 697 mmHg 33%
    22:00 +25°C° 0 mm 5 mps 697 mmHg 40%
    23:00 +25°C° 0 mm 4 mps 697 mmHg 41%

    Tomorrow, 17 December, Tuesday

    Time Temperature Precipitation Wind Pressure Humidity
    00:00 +24°C° 0 mm 3 mps 696 mmHg 41%
    01:00 +24°C° 0 mm 3 mps 696 mmHg 41%
    02:00 +22°C° 0 mm 3 mps 696 mmHg 44%
    03:00 +21°C° 0 mm 2 mps 696 mmHg 46%
    04:00 +21°C° 0 mm 2 mps 695 mmHg 49%
    05:00 +22°C° 0 mm 3 mps 696 mmHg 45%
    06:00 +25°C° 0 mm 4 mps 696 mmHg 41%
    07:00 +27°C° 0 mm 5 mps 697 mmHg 37%
    08:00 +29°C° 0 mm 5 mps 697 mmHg 33%
    09:00 +30°C° 0 mm 6 mps 696 mmHg 29%
    10:00 +33°C° 0 mm 7 mps 696 mmHg 25%
    11:00 +34°C° 0 mm 7 mps 696 mmHg 23%
    12:00 +35°C° 0 mm 7 mps 695 mmHg 21%
    13:00 +37°C° 0 mm 8 mps 695 mmHg 18%
    14:00 +36°C° 0 mm 7 mps 694 mmHg 18%
    15:00 +36°C° 0 mm 7 mps 694 mmHg 17%
    16:00 +36°C° 0 mm 7 mps 694 mmHg 16%
    17:00 +35°C° 0 mm 6 mps 694 mmHg 18%
    18:00 +33°C° 0 mm 6 mps 694 mmHg 19%
    19:00 +32°C° 0 mm 5 mps 694 mmHg 20%
    20:00 +30°C° 0 mm 5 mps 694 mmHg 24%
    21:00 +29°C° 0 mm 4 mps 695 mmHg 28%
    22:00 +28°C° 0 mm 3 mps 695 mmHg 31%
    23:00 +27°C° 0 mm 3 mps 694 mmHg 34%

    Day after tomorrow, 18 December, Wednesday

    Time Temperature Precipitation Wind Pressure Humidity
    00:00 +26°C° 0 mm 2 mps 694 mmHg 36%
    01:00 +25°C° 0 mm 1 mps 694 mmHg 38%
    02:00 +25°C° 0 mm 1 mps 694 mmHg 39%
    03:00 +24°C° 0 mm 1 mps 694 mmHg 41%
    04:00 +24°C° 0 mm 1 mps 694 mmHg 43%
    05:00 +26°C° 0 mm 2 mps 694 mmHg 38%
    06:00 +28°C° 0 mm 2 mps 695 mmHg 34%
    07:00 +29°C° 0 mm 3 mps 696 mmHg 30%
    08:00 +31°C° 0 mm 3 mps 696 mmHg 28%
    09:00 +33°C° 0 mm 3 mps 695 mmHg 26%
    10:00 +34°C° 0 mm 3 mps 695 mmHg 24%
    11:00 +35°C° 0 mm 3 mps 695 mmHg 22%
    12:00 +36°C° 0 mm 4 mps 694 mmHg 20%
    13:00 +37°C° 0 mm 4 mps 694 mmHg 18%
    14:00 +38°C° 0 mm 4 mps 693 mmHg 18%
    15:00 +38°C° 0 mm 4 mps 693 mmHg 17%
    16:00 +38°C° 0 mm 4 mps 693 mmHg 16%
    17:00 +37°C° 0 mm 4 mps 693 mmHg 18%
    18:00 +35°C° 0 mm 4 mps 694 mmHg 21%
    19:00 +34°C° 0 mm 4 mps 694 mmHg 23%
    20:00 +33°C° 0 mm 4 mps 694 mmHg 27%
    21:00 +31°C° 0 mm 3 mps 694 mmHg 31%
    22:00 +30°C° 0 mm 3 mps 694 mmHg 35%
    23:00 +29°C° 0 mm 3 mps 694 mmHg 37%

    19 December, Thursday

    Time Temperature Precipitation Wind Pressure Humidity
    00:00 +29°C° 0 mm 3 mps 694 mmHg 39%
    01:00 +28°C° 0 mm 3 mps 694 mmHg 41%
    02:00 +27°C° 0 mm 5 mps 694 mmHg 45%
    03:00 +26°C° 0 mm 6 mps 694 mmHg 49%
    04:00 +23°C° 0 mm 8 mps 694 mmHg 53%
    05:00 +24°C° 0 mm 8 mps 695 mmHg 50%
    06:00 +26°C° 0 mm 8 mps 695 mmHg 47%
    07:00 +27°C° 0 mm 7 mps 696 mmHg 44%
    08:00 +28°C° 0 mm 7 mps 696 mmHg 40%
    09:00 +29°C° 0 mm 7 mps 696 mmHg 36%
    10:00 +30°C° 0 mm 6 mps 696 mmHg 31%
    11:00 +32°C° 0 mm 6 mps 695 mmHg 29%
    12:00 +33°C° 0 mm 5 mps 695 mmHg 27%
    13:00 +34°C° 0 mm 5 mps 695 mmHg 24%
    14:00 +35°C° 0 mm 5 mps 694 mmHg 24%
    15:00 +35°C° 0 mm 5 mps 694 mmHg 24%
    16:00 +35°C° 0 mm 5 mps 694 mmHg 24%
    17:00 +34°C° 0 mm 4 mps 694 mmHg 26%
    18:00 +33°C° 0 mm 3 mps 694 mmHg 29%
    19:00 +30°C° 0 mm 3 mps 694 mmHg 31%
    20:00 +29°C° 0.1 mm 3 mps 695 mmHg 36%
    21:00 +28°C° 0.1 mm 3 mps 695 mmHg 41%
    22:00 +27°C° 0.1 mm 4 mps 696 mmHg 46%
    23:00 +25°C° 0.5 mm 5 mps 696 mmHg 53%

    20 December, Friday

    Time Temperature Precipitation Wind Pressure Humidity
    00:00 +22°C° 0.5 mm 6 mps 696 mmHg 61%
    01:00 +18°C° 0.5 mm 7 mps 696 mmHg 69%
    02:00 +18°C° 0 mm 7 mps 697 mmHg 69%
    03:00 +17°C° 0 mm 7 mps 697 mmHg 69%
    04:00 +17°C° 0 mm 7 mps 697 mmHg 68%
    05:00 +17°C° 0 mm 7 mps 698 mmHg 65%
    06:00 +19°C° 0 mm 6 mps 698 mmHg 61%
    07:00 +19°C° 0 mm 6 mps 699 mmHg 57%
    08:00 +20°C° 0 mm 5 mps 699 mmHg 52%
    09:00 +21°C° 0 mm 5 mps 699 mmHg 47%
    10:00 +22°C° 0 mm 4 mps 699 mmHg 42%
    11:00 +23°C° 0 mm 4 mps 699 mmHg 38%
    12:00 +25°C° 0 mm 3 mps 698 mmHg 35%
    13:00 +26°C° 0 mm 3 mps 698 mmHg 31%
    14:00 +27°C° 0 mm 3 mps 698 mmHg 29%
    15:00 +27°C° 0 mm 3 mps 698 mmHg 27%
    16:00 +28°C° 0 mm 3 mps 698 mmHg 26%
    17:00 +27°C° 0 mm 3 mps 698 mmHg 27%
    18:00 +26°C° 0 mm 3 mps 698 mmHg 28%
    19:00 +25°C° 0 mm 3 mps 699 mmHg 29%
    20:00 +25°C° 0 mm 3 mps 699 mmHg 30%
    21:00 +24°C° 0 mm 3 mps 699 mmHg 32%
    22:00 +23°C° 0 mm 2 mps 700 mmHg 33%
    23:00 +23°C° 0 mm 2 mps 699 mmHg 33%

    21 December, Saturday

    Time Temperature Precipitation Wind Pressure Humidity
    00:00 +23°C° 0 mm 1 mps 699 mmHg 33%
    01:00 +23°C° 0 mm 1 mps 699 mmHg 33%
    02:00 +22°C° 0 mm 1 mps 699 mmHg 32%
    03:00 +22°C° 0 mm 1 mps 699 mmHg 31%
    04:00 +21°C° 0 mm 2 mps 698 mmHg 30%
    05:00 +23°C° 0 mm 2 mps 699 mmHg 29%
    06:00 +24°C° 0 mm 2 mps 699 mmHg 27%
    07:00 +24°C° 0 mm 3 mps 699 mmHg 25%
    08:00 +25°C° 0 mm 3 mps 699 mmHg 25%
    09:00 +27°C° 0 mm 4 mps 699 mmHg 25%
    10:00 +28°C° 0 mm 4 mps 699 mmHg 25%
    11:00 +29°C° 0 mm 4 mps 699 mmHg 24%
    12:00 +29°C° 0 mm 4 mps 698 mmHg 24%
    13:00 +30°C° 0 mm 5 mps 698 mmHg 24%
    14:00 +32°C° 0 mm 5 mps 697 mmHg 23%
    15:00 +32°C° 0 mm 5 mps 697 mmHg 22%
    16:00 +32°C° 0 mm 6 mps 697 mmHg 21%
    17:00 +30°C° 0 mm 4 mps 697 mmHg 23%
    18:00 +29°C° 0 mm 3 mps 698 mmHg 24%
    19:00 +28°C° 0 mm 2 mps 698 mmHg 26%
    20:00 +27°C° 0 mm 3 mps 698 mmHg 27%
    21:00 +26°C° 0 mm 3 mps 699 mmHg 28%
    22:00 +25°C° 0 mm 4 mps 699 mmHg 29%
    23:00 +23°C° 0 mm 4 mps 699 mmHg 31%
    Show more